Location: ??????
(38.0677°N, 22.9870°E)
Time: 10:00:10
(UTC+00:00)

Cosmos 2184 Rocket - Pass Details

Date: 23 May 2024
Orbit: 959 x 1000 km, 82.9° (Epoch: 18 June)

Event Time Altitude Azimuth Distance (km) Brightness Sun altitude
Exits shadow 01:21:57 20° 184° (S) 2,090 5.3 -18.1°
Maximum altitude 01:26:29 87° 98° (E) 980 4.0 -17.4°
Drops below altitude 10° 01:32:47 10° 7° (N) 2,741 7.1 -16.6°
Sets 01:35:19 0° 8° (N) 3,699 7.9 -16.2°
